DECAYED

STARLINK-1733, 46564 (Decayed)

Orbit data source: Space-Track

STARLINK-1733, 46564 was a payload satellite owned by SpaceX/Seattle (US) in LEO that was launched on Tue, 06 Oct 2020 UTC via an FALCON 9 launch vehicle from the Air Force Eastern Test Range (AFETR). Payload-class satellites include a variety of spacecraft equipped with specific instruments for various scientific and technological missions. These include communications satellites like Starlink; space stations such as the ISS; scientific satellites like the Hubble; Earth observation satellites from companies like Planet Labs, Umbra, and HawkEye 360; GPS; miniature CubeSats for education and research; and military/defense satellites.

Not visible in the next 10 days
Identifier
46564, 2020-070AJ
Orbit
Decayed
Country
Flag of USUS
Related business
Manufacturer
SpaceX/Seattle
Mission
Decayed Commercial Communications
Bus & Motor
STARLINK, Unknown motor
Mass
260 kg wet, ~248 kg dry
Launch date (UTC)
2020-10-06 (6 years ago)
Launch vehicle
FALCON 9
Launch site
Air Force Eastern Test Range (AFETR)
Object type
Payload
Rocket body
Debris
Shape & HBR
Box + 1 Pan, 10.1 m
Radar Cross Section
13.562 m², Large (>1 m²)

Expand to show TLE details & history
Last TLE update: 1 month ago

TLE from 1 month ago
0 STARLINK-1733
1 46564U 20070AJ  26138.46385787  .06448784  12244-4  79072-3 0  9998
2 46564  53.0186 111.8751 0003912 276.3888  83.6710 16.35476702311563
Epoch: 2026-05-18T11:07Z
TLE epoch observation values (Epoch: 2026-05-18T11:07:57.319Z)
Latitude
-0.0001°
Longitude
68.73445°
Altitude
178.506 km
Speed
7.801 km/s
True Right ascension
07h 27m 30s
True Declination
0° 00' 00"
Sunlit
Object was in daylight at epoch
Visualization orbit readout
Latitude
Unknown
Longitude
Unknown
Altitude
Unknown
Speed
Unknown
Apparent Right ascension
Unknown
Apparent Declination
Unknown
Sunlit
N/A
Visualization observer readout
Local Sidereal Time
04:25:06
Azimuth
Unknown
Elevation
Unknown
Doppler factor
Unknown
Orbital elements
Apogee altitude
180.719 km
Perigee altitude
175.59 km
Semi-major axis
6,556.291 km
Eccentricity
0.00039
Inclination
53.0186°
RAAN
111.8751°
Arg. of periapsis
276.3888°
True anomaly
83.71556°
Mean anomaly
83.671°
Eccentric anomaly
83.69328°
Mean motion
4.08842 °/min
Orbital period
88.05 mins
BSTAR
0.00079072
Loading maneuver chart data...
Computing Atmospheric mass density...

Documentation

Showing up to 5 results
|